2018 Avenue of the Giants Marathon

Humboldt Redwoods State Park
2018-05-06
  • Logo
Starts on: 2018-05-06
Where: Humboldt Redwoods State Park
Categories: Marathon Half Marathon 10k Run/Walk
Overall marathon
name bib rank time pace hometown
Grayson Hough 100 1 02:25:55 05:35 Davis, CA
Blake Zufall 220 2 02:40:10 06:07 Redding, CA
Benjamin Stern 468 3 02:45:25 06:19 Weed, CA
Shane Lishawa 66 4 02:52:39 06:36 Mount Shasta, CA
Matthew Kidwell 11 5 02:54:02 06:39 Eureka, CA
Austin Smith 313 6 02:55:39 06:43 Oakland, CA
Steve Geertgens 117 7 02:56:59 06:46 Seattle, WA
Kris Clinard 252 8 02:57:20 06:47 Larkspur, CA
Sally Keating 161 9 02:57:49 06:48 San Diego, CA
Grant Drummond 58 10 03:01:27 06:56 Woodland Park, CO
Larry Neumann 273 11 03:03:25 07:00 Redwood City, CA
Christopher Czech 467 12 03:03:42 07:01 Portland, OR
Henry Notaro 144 13 03:03:58 07:02 Northfield, NJ
Kenneth Ockerberg 181 14 03:04:01 07:02 Union City, CA
Tom Johnson 62 15 03:05:21 07:05 Portland, OR
James Cahill 271 16 03:05:41 07:06 Santa Cruz, CA
Jason Hickman 524 17 03:07:03 07:09 Carmel, CA
Frances Zander 463 18 03:11:13 07:18 Boise, ID
Kristine Klotzbach 464 19 03:11:15 07:18 Walnut Creek, CA
Trevor Penford 157 20 03:13:33 07:24 Calgary, Canada
Tami Beall 206 21 03:13:39 07:24 Arcata, CA
Noel Bautista 251 22 03:14:45 07:26 South San Francisco, CA
Philip Klotzbach 465 23 03:15:21 07:28 Walnut Creek, CA
Ronald Skoda 209 24 03:17:16 07:32 Novato, CA
Jonathan Tsai 103 25 03:17:26 07:33 Saratoga, CA
Graham Felsenthal 493 26 03:17:54 07:34 Arcata, CA
Gabriel Ravel 307 27 03:18:39 07:35 Sacramento, CA
Romi Voorhies 474 27 02:15:39 21:50 Marrero, LA
Karen Kidwell 10 28 03:18:58 07:36 Eureka, CA
Annie Ciernia 213 29 03:18:60 07:36 Davis, CA
Richard Duke 265 30 03:19:09 07:36 Boulder, CO
Jimmy Dupriest 478 31 03:19:29 07:37 Arcata, CA
Daniel Wysong 330 32 03:19:33 07:37 Paradise, CA
Jessica Anies 266 33 03:19:42 07:38 Boulder, CO
Eric Sands 54 34 03:20:47 07:40 Fairfax, CA
Leo Buc 469 35 03:21:11 07:41 Ukiah, CA
Ken Simler 146 36 03:23:26 07:46 Hyattsville, MD
Nick Siino 163 37 03:24:20 07:48 Davis, CA
Everardo Mendoza 492 38 03:25:20 07:51 Mexican Hat, UT
Megan Smyth 512 39 03:25:31 07:51 Dallas, TX
Max Gubin 305 40 03:25:37 07:51 Danville, CA
Andy Kraft 49 41 03:26:34 07:53 Portland, OR
Scott Golay 502 42 03:27:49 07:56 San Clemente, CA
Drake Bernards 507 43 03:28:23 07:58 Mckinleyville, CA
Timothy Smith 51 44 03:29:08 07:59 Oakland, CA
Ian Campbell 87 45 03:29:36 08:00 Woodland, CA
Allan Vermeulen 280 46 03:29:37 08:00 Parksville, Canada, BC
Nathaniel Kane 215 47 03:30:15 08:02 Oakland, CA
David Urbaniak 52 48 03:30:20 08:02 Portland, OR
Rachel Cardoza 301 49 03:30:50 08:03 Eureka, CA
Oliver Cory 75 50 03:33:36 08:10 Eureka, CA
Mike Floyd 342 51 03:33:39 08:10 Gearhart, OR
Chris Lauth 278 52 03:34:24 08:11 Oakland, CA
Patrick Hazelton 96 53 03:35:09 08:13 Oakland, CA
Audrey Haynes 267 54 03:35:39 08:14 Oakland, CA
James Murnane 48 55 03:38:46 08:21 San Francisco, CA
Beth Rathburn 131 56 03:38:52 08:22 Medford, OR
Kay Evans 416 57 03:39:03 08:22 Chocowinity, NC
David Sacco 325 58 03:39:37 08:23 Dallas, TX
Alicia Mengel 501 59 03:39:40 08:24 Mckinleyville, CA
Chris Owens 112 60 03:39:43 08:24 Salem, OR
Jeff Ramos 263 61 03:39:46 08:24 Elk Grove, CA
Ronald Almasy 125 62 03:40:39 08:26 Lincoln, CA
Joseph Wetton 149 63 03:40:42 08:26 Hillsboro, OR
Scott Olenski 320 64 03:40:45 08:26 San Francisco, CA
Eric Harrell 405 65 03:41:09 08:27 Dublin, CA
Tac Phung 110 66 03:41:09 08:27 Los Angeles, CA
Eric Kennedy 46 67 03:41:29 08:28 Portland, OR
Frank Hutchinson 42 68 03:41:55 08:29 Los Osos, CA
Elizabeth Vaage 228 69 03:42:04 08:29 Davis, CA
Neil Ortiz 430 70 03:43:37 08:33 Santa Rosa, CA
David Kalman 130 71 03:43:51 08:33 Maumee, OH
Erin Orndorf 256 72 03:44:10 08:34 Oregon City, OR
Bob Basse 120 73 03:44:36 08:35 Denver, CO
Amanda Reynolds 71 74 03:44:55 08:36 Arcata, CA
Zachary Jenkins 421 75 03:45:02 08:36 San Francisco, CA
David Fletcher 242 76 03:45:02 08:36 Venice, CA
Devin Thompson 311 77 03:45:49 08:38 Springfield, OR
Douglas Hartling 503 78 03:46:04 08:38 Eureka, CA
Alex Danner 127 79 03:46:22 08:39 Nevada City, CA
Jodi Sacco 243 80 03:47:01 08:40 Dallas, TX
Tim Ruffino 152 81 03:47:27 08:41 Folsom, CA
Rose Asquith 216 82 03:47:51 08:42 Grass Valley, CA
Jim Pritchard 226 83 03:48:13 08:43 Nevada City, CA
Mike Wood 470 84 03:48:27 08:44 Trinidad, CA
Nick Leonard 461 85 03:48:28 08:44 Oakland, CA
Lyndsey Walling 29 86 03:49:29 08:46 Harrisburg, PA
Jeff Haag 235 87 03:49:31 08:46 Mckinleyville, CA
Kyle Peterson 417 88 03:49:40 08:46 Austin, TX
Richard Blaylock 341 89 03:50:30 08:48 San Francisco, CA
Isaac Benitez 322 90 03:51:20 08:50 Vacaville, CA
Katie Collins 109 91 03:51:46 08:51 Tempe, AZ
Brian Crawford 159 92 03:52:01 08:52 San Jose, CA
Alejandra Silva 328 93 03:52:03 08:52 Salinas, CA
Amanda Lee 472 94 03:52:12 08:52 Arcata, CA
Brent Ritschel 426 95 03:52:13 08:52 Arcata, CA
Mike Phillips 504 96 03:52:17 08:52 Portland, OR
Heather Ryan 162 97 03:52:48 08:54 Reno, NV
Nathan Warren 457 98 03:53:16 08:55 Meadow Vista, CA
Jamie Henson 38 99 03:53:39 08:56 Sacramento, CA
Roger Demers 419 100 03:53:42 08:56 Redding, CA

Next Page